This demonstration page uses our WeatherBlox Daily Observations layout. Learn more.

Left ArrowRight Arrow

44.8408, -93.29828

Hourly Observations for May 1, 2021

Temp ( °F °C ) Dew Point ( °F °C ) Humidity (%) Winds ( mph kmh ) Pressure ( in mb ) Visibility ( mi km ) Precip ( " mm )
12:53 am 00:53 Mostly Cloudy 55 12.8 23 -5 29 29 SSE 8 13 29.91 1013 10 16 0.00 0.00
1:53 am 01:53 Partly Cloudy 54 12.2 22 -5.6 29 29 SSE 7 11 29.86 1011 10 16 0.00 0.00
2:53 am 02:53 Mostly Cloudy 56 13.3 22 -5.6 27 27 S 12 19 29.80 1009 10 16 0.00 0.00
3:53 am 03:53 Mostly Cloudy 57 13.9 25 -3.9 29 29 SSE 12 19 29.75 1008 10 16 0.00 0.00
4:53 am 04:53 Mostly Cloudy 59 15 31 -0.6 35 35 S 14 22 29.69 1005 10 16 0.00 0.00
5:53 am 05:53 Mostly Clear 59 15 35 1.7 41 41 S 12 19 29.65 1004 10 16 0.00 0.00
6:53 am 06:53 Partly Cloudy 58 14.4 36 2.2 44 44 SSW 8 13 29.63 1003 10 16 0.00 0.00
7:53 am 07:53 Partly Cloudy 60 15.6 39 3.9 46 46 VRB 5 7 29.61 1003 10 16 0.00 0.00
8:53 am 08:53 Partly Cloudy 67 19.4 41 5 39 39 WSW 12 19 29.59 1002 10 16 0.00 0.00
9:53 am 09:53 Partly Cloudy 70 21.1 43 6.1 38 38 W 14 22 29.59 1002 10 16 0.00 0.00
10:53 am 10:53 Partly Cloudy 73 22.8 45 7.2 37 37 W 7 11 29.59 1002 10 16 0.00 0.00
11:53 am 11:53 Partly Cloudy 76 24.4 45 7.2 33 33 WSW 12 19 29.58 1002 10 16 0.00 0.00
12:53 pm 12:53 Partly Cloudy 80 26.7 45 7.2 29 29 W 8 13 29.56 1001 10 16 0.00 0.00
1:53 pm 13:53 Partly Cloudy 83 28.3 44 6.7 25 25 VRB 5 7 29.54 1000 10 16 0.00 0.00
2:53 pm 14:53 Mostly Cloudy 86 30 42 5.6 21 21 SW 8 13 29.52 1000 10 16 0.00 0.00
3:53 pm 15:53 Mostly Cloudy 86 30 40 4.4 20 20 SW 8 13 29.49 999 10 16 0.00 0.00
4:53 pm 16:53 Mostly Cloudy 87 30.6 40 4.4 19 19 SW 9 15 29.49 999 10 16 0.00 0.00
5:53 pm 17:53 Mostly Cloudy 87 30.6 39 3.9 18 18 W 12 19 29.47 998 10 16 0.00 0.00
6:53 pm 18:53 Partly Cloudy 86 30 36 2.2 17 17 W 9 15 29.46 998 10 16 0.00 0.00
7:53 pm 19:53 Mostly Cloudy 83 28.3 36 2.2 19 19 SW 6 9 29.44 997 10 16 0.00 0.00
8:53 pm 20:53 Partly Cloudy 78 25.6 40 4.4 26 26 Calm 29.43 997 10 16 0.00 0.00
9:53 pm 21:53 Partly Cloudy 77 25 39 3.9 26 26 SW 8 13 29.46 998 10 16 0.00 0.00
10:53 pm 22:53 Partly Cloudy 75 23.9 41 5 29 29 W 7 11 29.47 998 10 16 0.00 0.00
11:53 pm 23:53 Partly Cloudy 74 23.3 40 4.4 29 29 WSW 5 7 29.46 998 10 16 0.00 0.00

Powered by AerisWeather